Regional Weather Roundup
Issued by NWS

Home | Current Version | Previous Version | Graphics & Text | Print | Product List | Glossary On
Versions: 1 2 3 4 5 6 7 8 9 10 11 12 13 14 15 16 17 18 19 20 21 22 23 24 25 26 27 28 29 30 31 32 33 34 35 36 37 38 39 40 41 42 43 44 45 46 47 48 49 50
000
ASUS43 KLMK 221202
RWRKY
KENTUCKY REGIONAL WEATHER ROUNDUP
NATIONAL WEATHER SERVICE LOUISVILLE KY
800 AM EDT SAT JUL 22 2017

NOTE "FAIR" INDICATES FEW OR NO CLOUDS BELOW 12,000 FEET
WITH NO SIGNIFICANT WEATHER AND/OR OBSTRUCTIONS TO VISIBILITY.

KYZ001>023-026-027-061>063-070>075-221300-
WESTERN AND SOUTH CENTRAL KENTUCKY

CITY           SKY/WX    TMP DP  RH WIND       PRES   REMARKS
PADUCAH        SUNNY     80  74  81 S5        29.92S
HENDERSON      SUNNY     78  75  90 SW5       29.91R
OWENSBORO      SUNNY     79  76  90 S6        29.92S FOG
HOPKINSVILLE   SUNNY     81  75  84 S5        29.95S
BOWLING GREEN  SUNNY     81  76  84 SW6       29.96S
GLASGOW        NOT AVBL
$$

KYZ024-025-028>034-038-045-046-053-221300-
NORTH CENTRAL KENTUCKY

CITY           SKY/WX    TMP DP  RH WIND       PRES   REMARKS
LOUISVILLE/SDF CLOUDY    82  76  81 SW7       29.92R HAZE
LOUISVILLE/LOU CLOUDY    82  77  84 SW8       29.93R HX  90
FORT KNOX      SUNNY     78  74  88 SW6       29.93S
$$

KYZ035>037-039>044-047>052-055>060-089>105-221300-
NORTHEAST KENTUCKY

CITY           SKY/WX    TMP DP  RH WIND       PRES   REMARKS
LEXINGTON      CLOUDY    78  72  81 SW8       29.96S HAZE
COVINGTON      CLOUDY    78  77  96 CALM      29.93R FOG
FRANKFORT      CLOUDY    79  73  82 SW6       29.94R
$$

KYZ054-064>069-076>088-106>120-221300-
SOUTHEAST KENTUCKY

CITY           SKY/WX    TMP DP  RH WIND       PRES   REMARKS
JACKSON        SUNNY     76  72  87 CALM      30.01R
LONDON         LGT RAIN  76  71  85 CALM      30.02R
SOMERSET       CLOUDY    73  73 100 CALM      30.01R
MIDDLESBORO    FOG       71  71 100 CALM      30.03S VSB 1/2
MONTICELLO     SUNNY     75  73  93 W9        30.02R
$$





USA.gov is the U.S. government's official web portal to all federal, state and local government web resources and services.